Time,TemperatureF,DewpointF,PressureIn,WindDirection,WindDirectionDegrees,WindSpeedMPH,WindSpeedGustMPH,Humidity,HourlyPrecipIn,Conditions,Clouds,dailyrainin,SoftwareType,DateUTC
2013-11-21 00:01:00,25.5,19.9,30.66,NW,326,0.0,0.0,79,0.00,CLR,,0.00,WeatherDisplay:10.37,2013-11-21 05:01:00,
2013-11-21 00:02:00,25.5,19.9,30.66,NW,306,6.0,6.0,79,0.00,CLR,,0.00,WeatherDisplay:10.37,2013-11-21 05:02:00,
2013-11-21 00:03:00,25.4,20.1,30.66,NNW,330,6.3,6.3,80,0.00,CLR,,0.00,WeatherDisplay:10.37,2013-11-21 05:03:00,
2013-11-21 00:07:00,25.3,20.0,30.66,NNW,347,2.3,2.3,80,0.00,CLR,,0.00,WeatherDisplay:10.37,2013-11-21 05:07:00,
2013-11-21 00:08:00,25.3,20.0,30.66,North,350,2.3,2.3,80,0.00,CLR,,0.00,WeatherDisplay:10.37,2013-11-21 05:08:00,
2013-11-21 00:10:00,25.3,20.0,30.66,North,349,2.3,2.3,80,0.00,CLR,,0.00,WeatherDisplay:10.37,2013-11-21 05:10:00,
2013-11-21 00:15:00,25.1,19.8,30.65,NNW,347,0.0,0.0,80,0.00,CLR,,0.00,WeatherDisplay:10.37,2013-11-21 05:15:00,
2013-11-21 00:20:00,24.9,19.6,30.66,NNW,347,0.0,0.0,80,0.00,CLR,,0.00,WeatherDisplay:10.37,2013-11-21 05:20:00,
2013-11-21 00:25:00,24.8,19.8,30.66,NNW,347,0.0,0.0,81,0.00,CLR,,0.00,WeatherDisplay:10.37,2013-11-21 05:25:00,
2013-11-21 00:30:00,24.5,19.8,30.66,NNW,333,6.9,6.9,82,0.00,CLR,,0.00,WeatherDisplay:10.37,2013-11-21 05:30:00,
2013-11-21 00:35:00,24.7,20.3,30.66,WNW,302,6.9,6.9,83,0.00,CLR,,0.00,WeatherDisplay:10.37,2013-11-21 05:35:00,
2013-11-21 00:40:00,24.7,20.3,30.66,NW,312,6.0,6.0,83,0.00,CLR,,0.00,WeatherDisplay:10.37,2013-11-21 05:40:00,
2013-11-21 00:45:00,24.9,20.2,30.66,NW,318,5.8,5.8,82,0.00,CLR,,0.00,WeatherDisplay:10.37,2013-11-21 05:45:00,
2013-11-21 00:50:00,24.9,20.2,30.66,NW,311,5.8,5.8,82,0.00,CLR,,0.00,WeatherDisplay:10.37,2013-11-21 05:50:00,
2013-11-21 00:55:00,25.0,20.3,30.66,NW,319,0.0,0.0,82,0.00,CLR,,0.00,WeatherDisplay:10.37,2013-11-21 05:55:00,
2013-11-21 00:58:00,25.1,20.4,30.66,NW,317,0.0,0.0,82,0.00,CLR,,0.00,WeatherDisplay:10.37,2013-11-21 05:58:00,
2013-11-21 01:03:00,24.9,20.2,30.66,NW,312,4.5,4.5,82,0.00,CLR,,0.00,WeatherDisplay:10.37,2013-11-21 06:03:00,
2013-11-21 01:08:00,25.1,20.7,30.66,NW,311,5.9,5.9,83,0.00,CLR,,0.00,WeatherDisplay:10.37,2013-11-21 06:08:00,
2013-11-21 01:13:00,25.2,20.5,30.67,NW,320,1.2,0.0,82,0.00,CLR,,0.00,WeatherDisplay:10.37,2013-11-21 06:13:00,
2013-11-21 01:19:00,25.3,20.3,30.67,NW,320,0.0,0.0,81,0.00,CLR,,0.00,WeatherDisplay:10.37,2013-11-21 06:19:00,
2013-11-21 01:24:00,25.5,20.5,30.67,NW,320,0.0,0.0,81,0.00,CLR,,0.00,WeatherDisplay:10.37,2013-11-21 06:24:00,
2013-11-21 01:29:00,25.4,20.4,30.67,NW,308,3.5,3.5,81,0.00,CLR,,0.00,WeatherDisplay:10.37,2013-11-21 06:29:00,
2013-11-21 01:34:00,25.5,20.5,30.68,NW,315,0.0,0.0,81,0.00,CLR,,0.00,WeatherDisplay:10.37,2013-11-21 06:34:00,
2013-11-21 01:39:00,25.5,20.5,30.68,NW,315,0.0,0.0,81,0.00,CLR,,0.00,WeatherDisplay:10.37,2013-11-21 06:39:00,
2013-11-21 01:44:00,25.5,20.2,30.68,NW,315,0.0,0.0,80,0.00,CLR,,0.00,WeatherDisplay:10.37,2013-11-21 06:44:00,
2013-11-21 01:49:00,25.5,20.2,30.68,NW,315,0.0,0.0,80,0.00,CLR,,0.00,WeatherDisplay:10.37,2013-11-21 06:49:00,
2013-11-21 01:54:00,25.5,20.2,30.68,NW,315,0.0,0.0,80,0.00,CLR,,0.00,WeatherDisplay:10.37,2013-11-21 06:54:00,
2013-11-21 01:59:00,25.3,19.7,30.68,NW,315,0.0,0.0,79,0.00,CLR,,0.00,WeatherDisplay:10.37,2013-11-21 06:59:00,
2013-11-21 02:04:00,25.3,20.0,30.68,NW,315,0.0,0.0,80,0.00,CLR,,0.00,WeatherDisplay:10.37,2013-11-21 07:04:00,
2013-11-21 02:09:00,25.3,20.0,30.68,NW,315,0.0,0.0,80,0.00,CLR,,0.00,WeatherDisplay:10.37,2013-11-21 07:09:00,
2013-11-21 02:14:00,25.2,19.9,30.68,NW,315,0.0,0.0,80,0.00,CLR,,0.00,WeatherDisplay:10.37,2013-11-21 07:14:00,
2013-11-21 02:19:00,25.1,19.8,30.68,NW,315,0.0,0.0,80,0.00,CLR,,0.00,WeatherDisplay:10.37,2013-11-21 07:19:00,
2013-11-21 02:24:00,24.9,19.6,30.68,NW,315,0.0,0.0,80,0.00,CLR,,0.00,WeatherDisplay:10.37,2013-11-21 07:24:00,
2013-11-21 02:29:00,24.9,19.9,30.68,NW,315,0.0,0.0,81,0.00,CLR,,0.00,WeatherDisplay:10.37,2013-11-21 07:29:00,
2013-11-21 02:34:00,24.9,19.9,30.68,NW,315,0.0,0.0,81,0.00,CLR,,0.00,WeatherDisplay:10.37,2013-11-21 07:34:00,
2013-11-21 02:39:00,24.8,20.1,30.68,NW,315,0.0,0.0,82,0.00,CLR,,0.00,WeatherDisplay:10.37,2013-11-21 07:39:00,
2013-11-21 02:44:00,24.6,19.9,30.68,NW,315,0.0,0.0,82,0.00,CLR,,0.00,WeatherDisplay:10.37,2013-11-21 07:44:00,
2013-11-21 02:49:00,24.4,20.0,30.68,NW,315,0.0,0.0,83,0.00,CLR,,0.00,WeatherDisplay:10.37,2013-11-21 07:49:00,
2013-11-21 02:54:00,24.3,19.9,30.68,NW,315,0.0,0.0,83,0.00,CLR,,0.00,WeatherDisplay:10.37,2013-11-21 07:54:00,
2013-11-21 02:59:00,24.2,19.8,30.68,NW,315,0.0,0.0,83,0.00,CLR,,0.00,WeatherDisplay:10.37,2013-11-21 07:59:00,
2013-11-21 03:04:00,24.1,19.7,30.68,NW,315,0.0,0.0,83,0.00,CLR,,0.00,WeatherDisplay:10.37,2013-11-21 08:04:00,
2013-11-21 03:09:00,24.3,19.9,30.68,NW,315,0.0,0.0,83,0.00,CLR,,0.00,WeatherDisplay:10.37,2013-11-21 08:09:00,
2013-11-21 03:14:00,24.2,19.8,30.68,NW,315,0.0,0.0,83,0.00,CLR,,0.00,WeatherDisplay:10.37,2013-11-21 08:14:00,
2013-11-21 03:19:00,24.1,19.7,30.68,NW,315,0.0,0.0,83,0.00,CLR,,0.00,WeatherDisplay:10.37,2013-11-21 08:19:00,
2013-11-21 03:24:00,24.1,19.7,30.67,NW,315,0.0,0.0,83,0.00,CLR,,0.00,WeatherDisplay:10.37,2013-11-21 08:24:00,
2013-11-21 03:29:00,24.3,19.9,30.67,NW,315,0.0,0.0,83,0.00,CLR,,0.00,WeatherDisplay:10.37,2013-11-21 08:29:00,
2013-11-21 03:34:00,24.1,19.7,30.67,NW,315,0.0,0.0,83,0.00,CLR,,0.00,WeatherDisplay:10.37,2013-11-21 08:34:00,
2013-11-21 03:39:00,24.0,19.9,30.67,NW,315,0.0,0.0,84,0.00,CLR,,0.00,WeatherDisplay:10.37,2013-11-21 08:39:00,
2013-11-21 03:44:00,23.9,19.8,30.67,NW,315,0.0,0.0,84,0.00,CLR,,0.00,WeatherDisplay:10.37,2013-11-21 08:44:00,
2013-11-21 03:49:00,23.7,19.6,30.67,NW,315,0.0,0.0,84,0.00,CLR,,0.00,WeatherDisplay:10.37,2013-11-21 08:49:00,
2013-11-21 03:54:00,23.7,19.6,30.67,NW,306,3.5,3.5,84,0.00,CLR,,0.00,WeatherDisplay:10.37,2013-11-21 08:54:00,
2013-11-21 03:59:00,23.6,19.5,30.67,NW,316,3.5,3.5,84,0.00,CLR,,0.00,WeatherDisplay:10.37,2013-11-21 08:59:00,
2013-11-21 04:04:00,23.4,19.6,30.67,NW,316,3.5,3.5,85,0.00,CLR,,0.00,WeatherDisplay:10.37,2013-11-21 09:04:00,
2013-11-21 04:09:00,23.4,19.6,30.67,NW,319,4.6,4.6,85,0.00,CLR,,0.00,WeatherDisplay:10.37,2013-11-21 09:09:00,
2013-11-21 04:14:00,23.3,19.5,30.67,NNW,328,3.5,3.5,85,0.00,CLR,,0.00,WeatherDisplay:10.37,2013-11-21 09:14:00,
2013-11-21 04:19:00,23.3,19.5,30.68,NNW,328,0.0,0.0,85,0.00,CLR,,0.00,WeatherDisplay:10.37,2013-11-21 09:19:00,
2013-11-21 04:24:00,23.2,19.4,30.67,NNW,328,0.0,0.0,85,0.00,CLR,,0.00,WeatherDisplay:10.37,2013-11-21 09:24:00,
2013-11-21 04:29:00,23.3,19.2,30.68,NNW,328,0.0,0.0,84,0.00,CLR,,0.00,WeatherDisplay:10.37,2013-11-21 09:29:00,
2013-11-21 04:34:00,23.3,19.2,30.68,NNW,328,0.0,0.0,84,0.00,CLR,,0.00,WeatherDisplay:10.37,2013-11-21 09:34:00,
2013-11-21 04:39:00,23.3,18.9,30.68,NNW,328,0.0,0.0,83,0.00,CLR,,0.00,WeatherDisplay:10.37,2013-11-21 09:39:00,
2013-11-21 04:44:00,23.4,19.0,30.68,NNW,328,0.0,0.0,83,0.00,CLR,,0.00,WeatherDisplay:10.37,2013-11-21 09:44:00,
2013-11-21 04:49:00,23.7,19.3,30.68,NNW,328,0.0,0.0,83,0.00,CLR,,0.00,WeatherDisplay:10.37,2013-11-21 09:49:00,
2013-11-21 04:54:00,23.6,19.2,30.68,NNW,328,0.0,0.0,83,0.00,CLR,,0.00,WeatherDisplay:10.37,2013-11-21 09:54:00,
2013-11-21 04:59:00,23.8,19.4,30.68,NNW,328,0.0,0.0,83,0.00,CLR,,0.00,WeatherDisplay:10.37,2013-11-21 09:59:00,
2013-11-21 05:04:00,23.6,19.2,30.68,NW,319,3.5,3.5,83,0.00,CLR,,0.00,WeatherDisplay:10.37,2013-11-21 10:04:00,
2013-11-21 05:09:00,23.6,19.2,30.68,NW,313,2.3,0.0,83,0.00,CLR,,0.00,WeatherDisplay:10.37,2013-11-21 10:09:00,
2013-11-21 05:14:00,23.4,19.0,30.68,NW,313,0.0,0.0,83,0.00,CLR,,0.00,WeatherDisplay:10.37,2013-11-21 10:14:00,
2013-11-21 05:19:00,23.3,18.9,30.68,NW,313,0.0,0.0,83,0.00,CLR,,0.00,WeatherDisplay:10.37,2013-11-21 10:19:00,
2013-11-21 05:24:00,23.2,18.6,30.68,NW,313,0.0,0.0,82,0.00,CLR,,0.00,WeatherDisplay:10.37,2013-11-21 10:24:00,
2013-11-21 05:29:00,23.4,18.8,30.67,NW,313,0.0,0.0,82,0.00,CLR,,0.00,WeatherDisplay:10.37,2013-11-21 10:29:00,
2013-11-21 05:35:00,23.3,18.4,30.67,NW,313,0.0,0.0,81,0.00,CLR,,0.00,WeatherDisplay:10.37,2013-11-21 10:35:00,
2013-11-21 05:40:00,23.5,18.6,30.67,NW,313,0.0,0.0,81,0.00,CLR,,0.00,WeatherDisplay:10.37,2013-11-21 10:40:00,
2013-11-21 05:45:00,23.5,18.6,30.67,NW,313,0.0,0.0,81,0.00,CLR,,0.00,WeatherDisplay:10.37,2013-11-21 10:45:00,
2013-11-21 05:50:00,23.5,18.6,30.67,NW,313,0.0,0.0,81,0.00,CLR,,0.00,WeatherDisplay:10.37,2013-11-21 10:50:00,
2013-11-21 05:55:00,23.4,18.8,30.66,NW,313,0.0,0.0,82,0.00,CLR,,0.00,WeatherDisplay:10.37,2013-11-21 10:55:00,
2013-11-21 06:00:00,23.3,18.9,30.66,NW,313,0.0,0.0,83,0.00,CLR,,0.00,WeatherDisplay:10.37,2013-11-21 11:00:00,
2013-11-21 06:05:00,23.1,18.7,30.66,NW,313,0.0,0.0,83,0.00,CLR,,0.00,WeatherDisplay:10.37,2013-11-21 11:05:00,
2013-11-21 06:10:00,22.8,18.7,30.66,NW,313,0.0,0.0,84,0.00,CLR,,0.00,WeatherDisplay:10.37,2013-11-21 11:10:00,
2013-11-21 06:15:00,22.7,18.6,30.66,NW,313,0.0,0.0,84,0.00,CLR,,0.00,WeatherDisplay:10.37,2013-11-21 11:15:00,
2013-11-21 06:20:00,22.5,18.7,30.66,NW,313,0.0,0.0,85,0.00,CLR,,0.00,WeatherDisplay:10.37,2013-11-21 11:20:00,
2013-11-21 06:25:00,22.3,18.5,30.66,NW,313,0.0,0.0,85,0.00,CLR,,0.00,WeatherDisplay:10.37,2013-11-21 11:25:00,
2013-11-21 06:30:00,22.3,18.8,30.67,NW,313,0.0,0.0,86,0.00,CLR,,0.00,WeatherDisplay:10.37,2013-11-21 11:30:00,
2013-11-21 06:35:00,22.1,18.6,30.67,NW,313,0.0,0.0,86,0.00,CLR,,0.00,WeatherDisplay:10.37,2013-11-21 11:35:00,
2013-11-21 06:40:00,22.1,18.6,30.67,NW,313,0.0,0.0,86,0.00,CLR,,0.00,WeatherDisplay:10.37,2013-11-21 11:40:00,
2013-11-21 06:45:00,22.1,18.6,30.68,NW,313,0.0,0.0,86,0.00,CLR,,0.00,WeatherDisplay:10.37,2013-11-21 11:45:00,
2013-11-21 06:50:00,22.0,18.5,30.67,NW,313,0.0,0.0,86,0.00,CLR,,0.00,WeatherDisplay:10.37,2013-11-21 11:50:00,
2013-11-21 06:55:00,21.9,18.4,30.68,NW,313,0.0,0.0,86,0.00,CLR,,0.00,WeatherDisplay:10.37,2013-11-21 11:55:00,
2013-11-21 07:00:00,21.8,18.6,30.68,NW,313,0.0,0.0,87,0.00,CLR,,0.00,WeatherDisplay:10.37,2013-11-21 12:00:00,
2013-11-21 07:05:00,21.9,18.7,30.68,NW,313,0.0,0.0,87,0.00,CLR,,0.00,WeatherDisplay:10.37,2013-11-21 12:05:00,
2013-11-21 07:11:00,21.8,18.6,30.68,NW,313,0.0,0.0,87,0.00,CLR,,0.00,WeatherDisplay:10.37,2013-11-21 12:11:00,
2013-11-21 07:16:00,21.7,18.5,30.68,NW,313,0.0,0.0,87,0.00,CLR,,0.00,WeatherDisplay:10.37,2013-11-21 12:16:00,
2013-11-21 07:21:00,22.1,19.1,30.68,NW,316,4.0,4.0,88,0.00,CLR,,0.00,WeatherDisplay:10.37,2013-11-21 12:21:00,
2013-11-21 07:26:00,22.2,19.2,30.68,WNW,288,2.6,2.6,88,0.00,CLR,,0.00,WeatherDisplay:10.37,2013-11-21 12:26:00,
2013-11-21 07:31:00,22.2,19.2,30.68,WNW,288,0.0,0.0,88,0.00,CLR,,0.00,WeatherDisplay:10.37,2013-11-21 12:31:00,
2013-11-21 07:36:00,22.3,19.3,30.68,WNW,288,0.0,0.0,88,0.00,CLR,,0.00,WeatherDisplay:10.37,2013-11-21 12:36:00,
2013-11-21 07:41:00,22.6,19.4,30.68,WNW,288,0.0,0.0,87,0.00,CLR,,0.00,WeatherDisplay:10.37,2013-11-21 12:41:00,
2013-11-21 07:46:00,22.9,19.6,30.68,WNW,288,0.0,0.0,87,0.00,CLR,,0.00,WeatherDisplay:10.37,2013-11-21 12:46:00,
2013-11-21 07:51:00,23.3,20.0,30.68,WNW,288,0.0,0.0,87,0.00,CLR,,0.00,WeatherDisplay:10.37,2013-11-21 12:51:00,
2013-11-21 07:56:00,23.7,20.2,30.68,WNW,288,0.0,0.0,86,0.00,CLR,,0.00,WeatherDisplay:10.37,2013-11-21 12:56:00,
2013-11-21 08:01:00,24.1,20.3,30.67,WNW,288,0.0,0.0,85,0.00,BKN,,0.00,WeatherDisplay:10.37,2013-11-21 13:01:00,
2013-11-21 08:06:00,24.4,20.6,30.67,WNW,288,0.0,0.0,85,0.00,BKN,,0.00,WeatherDisplay:10.37,2013-11-21 13:06:00,
2013-11-21 08:11:00,24.9,21.1,30.67,WNW,288,0.0,0.0,85,0.00,BKN,,0.00,WeatherDisplay:10.37,2013-11-21 13:11:00,
2013-11-21 08:16:00,25.1,21.3,30.66,WNW,288,0.0,0.0,85,0.00,BKN,,0.00,WeatherDisplay:10.37,2013-11-21 13:16:00,
2013-11-21 08:21:00,25.5,21.7,30.67,WNW,289,2.3,0.0,85,0.00,BKN,,0.00,WeatherDisplay:10.37,2013-11-21 13:21:00,
2013-11-21 08:26:00,26.0,22.1,30.66,WNW,289,0.0,0.0,85,0.00,BKN,,0.00,WeatherDisplay:10.37,2013-11-21 13:26:00,
2013-11-21 08:31:00,26.3,22.2,30.66,WNW,289,0.0,0.0,84,0.00,BKN,,0.00,WeatherDisplay:10.37,2013-11-21 13:31:00,
2013-11-21 08:36:00,27.1,22.4,30.67,WNW,289,0.0,0.0,82,0.00,BKN,,0.00,WeatherDisplay:10.37,2013-11-21 13:36:00,
2013-11-21 08:41:00,27.6,22.6,30.66,WNW,289,0.0,0.0,81,0.00,BKN,,0.00,WeatherDisplay:10.37,2013-11-21 13:41:00,
2013-11-21 08:46:00,28.3,22.4,30.66,WNW,289,0.0,0.0,78,0.00,BKN,,0.00,WeatherDisplay:10.37,2013-11-21 13:46:00,
2013-11-21 08:51:00,28.8,23.1,30.66,WNW,289,0.0,0.0,79,0.00,BKN,,0.00,WeatherDisplay:10.37,2013-11-21 13:51:00,
2013-11-21 08:56:00,29.4,23.7,30.66,WNW,289,0.0,0.0,79,0.00,BKN,,0.00,WeatherDisplay:10.37,2013-11-21 13:56:00,
2013-11-21 09:01:00,29.6,23.6,30.66,WNW,289,0.0,0.0,78,0.00,BKN,,0.00,WeatherDisplay:10.37,2013-11-21 14:01:00,
2013-11-21 09:06:00,29.9,23.9,30.66,WNW,289,0.0,0.0,78,0.00,BKN,,0.00,WeatherDisplay:10.37,2013-11-21 14:06:00,
2013-11-21 09:11:00,30.1,23.8,30.65,WNW,289,0.0,0.0,77,0.00,BKN,,0.00,WeatherDisplay:10.37,2013-11-21 14:11:00,
2013-11-21 09:16:00,30.4,24.1,30.65,WNW,289,0.0,0.0,77,0.00,SCT,,0.00,WeatherDisplay:10.37,2013-11-21 14:16:00,
2013-11-21 09:21:00,30.7,24.1,30.65,WNW,289,0.0,0.0,76,0.00,SCT,,0.00,WeatherDisplay:10.37,2013-11-21 14:21:00,
2013-11-21 09:26:00,31.0,23.7,30.65,WNW,289,0.0,0.0,74,0.00,SCT,,0.00,WeatherDisplay:10.37,2013-11-21 14:26:00,
2013-11-21 09:31:00,31.6,23.0,30.65,WNW,289,0.0,0.0,70,0.00,SCT,,0.00,WeatherDisplay:10.37,2013-11-21 14:31:00,
2013-11-21 09:36:00,32.0,22.7,30.65,WNW,289,0.0,0.0,68,0.00,SCT,,0.00,WeatherDisplay:10.37,2013-11-21 14:36:00,
2013-11-21 09:41:00,32.3,20.4,30.65,WNW,289,0.0,0.0,61,0.00,SCT,,0.00,WeatherDisplay:10.37,2013-11-21 14:41:00,
2013-11-21 09:46:00,33.2,21.6,30.65,WNW,289,0.0,0.0,62,0.00,SCT,,0.00,WeatherDisplay:10.37,2013-11-21 14:46:00,
2013-11-21 09:51:00,33.5,20.3,30.64,WNW,289,0.0,0.0,58,0.00,SCT,,0.00,WeatherDisplay:10.37,2013-11-21 14:51:00,
2013-11-21 09:56:00,34.3,20.7,30.64,WNW,289,0.0,0.0,57,0.00,SCT,,0.00,WeatherDisplay:10.37,2013-11-21 14:56:00,
2013-11-21 10:01:00,34.3,20.3,30.64,NNE,27,0.0,0.0,56,0.00,SCT,,0.00,WeatherDisplay:10.37,2013-11-21 15:01:00,
2013-11-21 10:06:00,35.1,21.4,30.64,NNE,27,0.0,0.0,57,0.00,CLR,,0.00,WeatherDisplay:10.37,2013-11-21 15:06:00,
2013-11-21 10:11:00,35.5,21.0,30.64,ESE,104,3.5,3.5,55,0.00,CLR,,0.00,WeatherDisplay:10.37,2013-11-21 15:11:00,
2013-11-21 10:16:00,36.0,21.8,30.63,NE,47,1.2,1.2,56,0.00,CLR,,0.00,WeatherDisplay:10.37,2013-11-21 15:16:00,
2013-11-21 10:21:00,36.4,21.4,30.63,South,185,3.5,3.5,54,0.00,CLR,,0.00,WeatherDisplay:10.37,2013-11-21 15:21:00,
2013-11-21 10:26:00,36.8,19.4,30.63,SSE,147,5.1,5.1,49,0.00,CLR,,0.00,WeatherDisplay:10.37,2013-11-21 15:26:00,
2013-11-21 10:31:00,37.4,20.9,30.63,SSE,168,3.5,3.5,51,0.00,CLR,,0.00,WeatherDisplay:10.37,2013-11-21 15:31:00,
2013-11-21 10:36:00,37.9,21.4,30.63,SE,131,0.0,0.0,51,0.00,CLR,,0.00,WeatherDisplay:10.37,2013-11-21 15:36:00,
2013-11-21 10:41:00,38.3,21.8,30.62,SSE,160,0.0,0.0,51,0.00,CLR,,0.00,WeatherDisplay:10.37,2013-11-21 15:41:00,
2013-11-21 10:46:00,38.4,21.9,30.62,East,99,3.5,3.5,51,0.00,CLR,,0.00,WeatherDisplay:10.37,2013-11-21 15:46:00,
2013-11-21 10:51:00,39.0,22.0,30.62,East,99,0.0,0.0,50,0.00,CLR,,0.00,WeatherDisplay:10.37,2013-11-21 15:51:00,
2013-11-21 10:56:00,39.3,22.2,30.61,East,99,0.0,0.0,50,0.00,CLR,,0.00,WeatherDisplay:10.37,2013-11-21 15:56:00,
2013-11-21 11:01:00,39.7,23.1,30.61,East,99,0.0,0.0,51,0.00,CLR,,0.00,WeatherDisplay:10.37,2013-11-21 16:01:00,
2013-11-21 11:06:00,40.0,22.9,30.61,East,100,3.6,3.6,50,0.00,CLR,,0.00,WeatherDisplay:10.37,2013-11-21 16:06:00,
2013-11-21 11:11:00,40.3,23.6,30.60,East,100,0.0,0.0,51,0.00,CLR,,0.00,WeatherDisplay:10.37,2013-11-21 16:11:00,
2013-11-21 11:16:00,40.5,23.3,30.60,East,100,0.0,0.0,50,0.00,CLR,,0.00,WeatherDisplay:10.37,2013-11-21 16:16:00,
2013-11-21 11:21:00,40.9,23.7,30.60,SSE,162,3.5,3.5,50,0.00,CLR,,0.00,WeatherDisplay:10.37,2013-11-21 16:21:00,
2013-11-21 11:26:00,41.2,23.5,30.59,SE,128,5.7,5.7,49,0.00,CLR,,0.00,WeatherDisplay:10.37,2013-11-21 16:26:00,
2013-11-21 11:31:00,41.2,24.5,30.60,SE,136,0.0,0.0,51,0.00,CLR,,0.00,WeatherDisplay:10.37,2013-11-21 16:31:00,
2013-11-21 11:36:00,41.5,25.2,30.59,South,172,0.0,0.0,52,0.00,CLR,,0.00,WeatherDisplay:10.37,2013-11-21 16:36:00,
2013-11-21 11:41:00,41.8,26.8,30.59,SSE,167,5.2,5.2,55,0.00,CLR,,0.00,WeatherDisplay:10.37,2013-11-21 16:41:00,
2013-11-21 11:46:00,42.0,27.5,30.59,SE,137,4.8,4.8,56,0.00,CLR,,0.00,WeatherDisplay:10.37,2013-11-21 16:46:00,
2013-11-21 11:51:00,42.1,27.1,30.58,SSE,161,6.1,6.1,55,0.00,CLR,,0.00,WeatherDisplay:10.37,2013-11-21 16:51:00,
2013-11-21 11:56:00,42.2,27.2,30.58,SE,137,0.0,0.0,55,0.00,CLR,,0.00,WeatherDisplay:10.37,2013-11-21 16:56:00,
2013-11-21 12:01:00,42.5,27.5,30.58,East,86,2.3,0.0,55,0.00,CLR,,0.00,WeatherDisplay:10.37,2013-11-21 17:01:00,
2013-11-21 12:06:00,42.7,28.6,30.57,SSW,192,7.9,7.9,57,0.00,FEW,,0.00,WeatherDisplay:10.37,2013-11-21 17:06:00,
2013-11-21 12:11:00,42.7,27.7,30.57,ESE,120,2.3,2.3,55,0.00,FEW,,0.00,WeatherDisplay:10.37,2013-11-21 17:11:00,
2013-11-21 12:16:00,43.0,28.4,30.56,SE,134,3.7,3.7,56,0.00,FEW,,0.00,WeatherDisplay:10.37,2013-11-21 17:16:00,
2013-11-21 12:21:00,43.2,27.7,30.56,SSE,158,3.5,3.5,54,0.00,FEW,,0.00,WeatherDisplay:10.37,2013-11-21 17:21:00,
2013-11-21 12:26:00,43.3,27.3,30.56,East,90,6.3,6.3,53,0.00,FEW,,0.00,WeatherDisplay:10.37,2013-11-21 17:26:00,
2013-11-21 12:31:00,43.3,27.8,30.55,ESE,113,7.0,7.0,54,0.00,FEW,,0.00,WeatherDisplay:10.37,2013-11-21 17:31:00,
2013-11-21 12:36:00,43.4,27.9,30.55,SW,219,0.0,0.0,54,0.00,FEW,,0.00,WeatherDisplay:10.37,2013-11-21 17:36:00,
2013-11-21 12:41:00,43.4,28.3,30.55,SSW,199,7.0,7.0,55,0.00,FEW,,0.00,WeatherDisplay:10.37,2013-11-21 17:41:00,
2013-11-21 12:46:00,43.3,28.2,30.55,South,185,7.6,7.6,55,0.00,FEW,,0.00,WeatherDisplay:10.37,2013-11-21 17:46:00,
2013-11-21 12:51:00,43.5,28.9,30.55,SSE,155,7.9,7.9,56,0.00,FEW,,0.00,WeatherDisplay:10.37,2013-11-21 17:51:00,
2013-11-21 12:56:00,43.4,28.8,30.54,SSW,195,3.5,3.5,56,0.00,FEW,,0.00,WeatherDisplay:10.37,2013-11-21 17:56:00,
2013-11-21 13:01:00,43.6,28.5,30.54,SW,223,8.7,8.7,55,0.00,FEW,,0.00,WeatherDisplay:10.37,2013-11-21 18:01:00,
2013-11-21 13:06:00,43.9,29.2,30.53,SSE,154,9.3,9.3,56,0.00,SCT,,0.00,WeatherDisplay:10.37,2013-11-21 18:06:00,
2013-11-21 13:11:00,44.2,29.1,30.53,SW,217,8.1,8.1,55,0.00,SCT,,0.00,WeatherDisplay:10.37,2013-11-21 18:11:00,
2013-11-21 13:16:00,44.4,28.8,30.52,SW,219,5.8,5.8,54,0.00,SCT,,0.00,WeatherDisplay:10.37,2013-11-21 18:16:00,
2013-11-21 13:21:00,44.7,29.5,30.52,South,171,8.1,8.1,55,0.00,SCT,,0.00,WeatherDisplay:10.37,2013-11-21 18:21:00,
2013-11-21 13:26:00,45.1,29.9,30.52,ESE,110,4.6,4.6,55,0.00,SCT,,0.00,WeatherDisplay:10.37,2013-11-21 18:26:00,
2013-11-21 13:31:00,45.4,29.7,30.52,ESE,123,3.5,3.5,54,0.00,SCT,,0.00,WeatherDisplay:10.37,2013-11-21 18:31:00,
2013-11-21 13:36:00,45.4,30.2,30.51,West,260,6.5,6.5,55,0.00,SCT,,0.00,WeatherDisplay:10.37,2013-11-21 18:36:00,
2013-11-21 13:41:00,45.8,29.7,30.51,SSE,155,0.0,0.0,53,0.00,SCT,,0.00,WeatherDisplay:10.37,2013-11-21 18:41:00,
2013-11-21 13:46:00,46.1,30.4,30.51,South,175,8.1,8.1,54,0.00,SCT,,0.00,WeatherDisplay:10.37,2013-11-21 18:46:00,
2013-11-21 13:51:00,46.3,30.6,30.51,South,184,6.2,6.2,54,0.00,SCT,,0.00,WeatherDisplay:10.37,2013-11-21 18:51:00,
2013-11-21 13:56:00,46.5,31.2,30.50,SE,144,0.0,0.0,55,0.00,SCT,,0.00,WeatherDisplay:10.37,2013-11-21 18:56:00,
2013-11-21 14:01:00,46.5,31.2,30.50,West,260,3.3,3.3,55,0.00,SCT,,0.00,WeatherDisplay:10.37,2013-11-21 19:01:00,
2013-11-21 14:06:00,46.4,31.1,30.50,SSE,151,3.5,3.5,55,0.00,SCT,,0.00,WeatherDisplay:10.37,2013-11-21 19:06:00,
2013-11-21 14:11:00,46.5,31.7,30.50,South,176,0.0,0.0,56,0.00,SCT,,0.00,WeatherDisplay:10.37,2013-11-21 19:11:00,
2013-11-21 14:16:00,46.5,32.1,30.50,South,178,8.1,8.1,57,0.00,SCT,,0.00,WeatherDisplay:10.37,2013-11-21 19:16:00,
2013-11-21 14:21:00,46.6,32.2,30.49,ESE,121,1.2,0.0,57,0.00,SCT,,0.00,WeatherDisplay:10.37,2013-11-21 19:21:00,
2013-11-21 14:26:00,46.8,32.8,30.49,WSW,240,1.2,1.2,58,0.00,SCT,,0.00,WeatherDisplay:10.37,2013-11-21 19:26:00,
2013-11-21 14:31:00,47.1,32.7,30.49,SE,131,3.5,3.5,57,0.00,SCT,,0.00,WeatherDisplay:10.37,2013-11-21 19:31:00,
2013-11-21 14:36:00,47.4,33.4,30.48,SE,131,0.0,0.0,58,0.00,SCT,,0.00,WeatherDisplay:10.37,2013-11-21 19:36:00,
2013-11-21 14:41:00,47.5,33.0,30.49,SSW,195,6.2,6.2,57,0.00,SCT,,0.00,WeatherDisplay:10.37,2013-11-21 19:41:00,
2013-11-21 14:46:00,47.5,33.5,30.49,SSW,199,6.9,6.9,58,0.00,SCT,,0.00,WeatherDisplay:10.37,2013-11-21 19:46:00,
2013-11-21 14:51:00,47.2,33.2,30.49,SSE,147,1.2,1.2,58,0.00,SCT,,0.00,WeatherDisplay:10.37,2013-11-21 19:51:00,
2013-11-21 14:57:00,46.9,33.3,30.49,South,188,0.0,0.0,59,0.00,SCT,,0.00,WeatherDisplay:10.37,2013-11-21 19:57:00,
2013-11-21 15:02:00,46.8,33.7,30.49,SSW,192,6.9,0.0,60,0.00,CLR,,0.00,WeatherDisplay:10.37,2013-11-21 20:02:00,
2013-11-21 15:07:00,46.7,33.6,30.49,South,174,9.0,9.0,60,0.00,CLR,,0.00,WeatherDisplay:10.37,2013-11-21 20:07:00,
2013-11-21 15:12:00,46.4,33.3,30.49,SW,215,0.0,0.0,60,0.00,CLR,,0.00,WeatherDisplay:10.37,2013-11-21 20:12:00,
2013-11-21 15:17:00,46.4,33.7,30.49,SW,222,0.0,0.0,61,0.00,CLR,,0.00,WeatherDisplay:10.37,2013-11-21 20:17:00,
2013-11-21 15:23:00,46.5,33.7,30.49,SW,222,0.0,0.0,61,0.00,CLR,,0.00,WeatherDisplay:10.37,2013-11-21 20:23:00,
2013-11-21 15:28:00,46.5,34.2,30.49,SW,222,0.0,0.0,62,0.00,CLR,,0.00,WeatherDisplay:10.37,2013-11-21 20:28:00,
2013-11-21 15:33:00,46.6,33.9,30.49,West,277,4.5,4.5,61,0.00,CLR,,0.00,WeatherDisplay:10.37,2013-11-21 20:33:00,
2013-11-21 15:38:00,46.5,34.2,30.49,WNW,301,8.8,8.8,62,0.00,CLR,,0.00,WeatherDisplay:10.37,2013-11-21 20:38:00,
2013-11-21 15:43:00,46.3,34.0,30.50,West,263,5.8,5.8,62,0.00,CLR,,0.00,WeatherDisplay:10.37,2013-11-21 20:43:00,
2013-11-21 15:48:00,46.1,33.8,30.50,WSW,237,9.6,9.6,62,0.00,CLR,,0.00,WeatherDisplay:10.37,2013-11-21 20:48:00,
2013-11-21 15:53:00,45.8,34.0,30.50,SSW,208,3.5,3.5,63,0.00,CLR,,0.00,WeatherDisplay:10.37,2013-11-21 20:53:00,
2013-11-21 15:58:00,45.8,34.3,30.50,WSW,254,10.4,10.4,64,0.00,CLR,,0.00,WeatherDisplay:10.37,2013-11-21 20:58:00,
2013-11-21 16:03:00,45.5,34.1,30.50,WNW,292,5.8,5.8,64,0.00,FEW,,0.00,WeatherDisplay:10.37,2013-11-21 21:03:00,
2013-11-21 16:08:00,45.2,34.2,30.49,West,265,5.3,5.3,65,0.00,FEW,,0.00,WeatherDisplay:10.37,2013-11-21 21:08:00,
2013-11-21 16:13:00,45.0,34.4,30.49,West,267,8.4,8.4,66,0.00,FEW,,0.00,WeatherDisplay:10.37,2013-11-21 21:13:00,
2013-11-21 16:18:00,44.8,34.2,30.49,WNW,295,8.1,8.1,66,0.00,FEW,,0.00,WeatherDisplay:10.37,2013-11-21 21:18:00,
2013-11-21 16:23:00,44.8,34.2,30.49,WSW,237,6.9,6.9,66,0.00,FEW,,0.00,WeatherDisplay:10.37,2013-11-21 21:23:00,
2013-11-21 16:28:00,44.7,34.4,30.49,West,271,6.9,6.9,67,0.00,FEW,,0.00,WeatherDisplay:10.37,2013-11-21 21:28:00,
2013-11-21 16:33:00,44.6,34.4,30.50,WSW,251,6.8,6.8,67,0.00,FEW,,0.00,WeatherDisplay:10.37,2013-11-21 21:33:00,
2013-11-21 16:38:00,44.7,34.4,30.50,West,268,4.8,4.8,67,0.00,FEW,,0.00,WeatherDisplay:10.37,2013-11-21 21:38:00,
2013-11-21 16:43:00,44.7,34.4,30.50,West,270,6.9,6.9,67,0.00,FEW,,0.00,WeatherDisplay:10.37,2013-11-21 21:43:00,
2013-11-21 16:48:00,44.7,34.4,30.50,WSW,258,2.9,2.9,67,0.00,FEW,,0.00,WeatherDisplay:10.37,2013-11-21 21:48:00,
2013-11-21 16:53:00,44.6,34.4,30.50,WSW,258,0.0,0.0,67,0.00,FEW,,0.00,WeatherDisplay:10.37,2013-11-21 21:53:00,
2013-11-21 16:58:00,44.6,34.4,30.50,WSW,258,0.0,0.0,67,0.00,FEW,,0.00,WeatherDisplay:10.37,2013-11-21 21:58:00,
2013-11-21 17:03:00,44.5,34.3,30.50,SW,226,5.8,5.8,67,0.00,OVC,,0.00,WeatherDisplay:10.37,2013-11-21 22:03:00,
2013-11-21 17:08:00,44.4,34.2,30.50,West,265,0.0,0.0,67,0.00,OVC,,0.00,WeatherDisplay:10.37,2013-11-21 22:08:00,
2013-11-21 17:13:00,44.5,34.6,30.50,SW,224,0.0,0.0,68,0.00,OVC,,0.00,WeatherDisplay:10.37,2013-11-21 22:13:00,
2013-11-21 17:18:00,44.3,34.4,30.50,SW,224,0.0,0.0,68,0.00,OVC,,0.00,WeatherDisplay:10.37,2013-11-21 22:18:00,
2013-11-21 17:23:00,44.3,34.4,30.50,SW,224,0.0,0.0,68,0.00,OVC,,0.00,WeatherDisplay:10.37,2013-11-21 22:23:00,
2013-11-21 17:28:00,44.2,34.3,30.50,SW,224,0.0,0.0,68,0.00,OVC,,0.00,WeatherDisplay:10.37,2013-11-21 22:28:00,
2013-11-21 17:33:00,44.1,34.6,30.50,SW,224,0.0,0.0,69,0.00,OVC,,0.00,WeatherDisplay:10.37,2013-11-21 22:33:00,
2013-11-21 17:38:00,44.0,34.5,30.50,SW,224,0.0,0.0,69,0.00,OVC,,0.00,WeatherDisplay:10.37,2013-11-21 22:38:00,
2013-11-21 17:43:00,43.9,34.4,30.50,SW,226,0.0,0.0,69,0.00,OVC,,0.00,WeatherDisplay:10.37,2013-11-21 22:43:00,
2013-11-21 17:48:00,43.8,34.3,30.50,SW,226,0.0,0.0,69,0.00,OVC,,0.00,WeatherDisplay:10.37,2013-11-21 22:48:00,
2013-11-21 17:53:00,43.8,34.3,30.50,SW,226,0.0,0.0,69,0.00,OVC,,0.00,WeatherDisplay:10.37,2013-11-21 22:53:00,
2013-11-21 17:58:00,43.8,34.3,30.49,SW,226,0.0,0.0,69,0.00,OVC,,0.00,WeatherDisplay:10.37,2013-11-21 22:58:00,
2013-11-21 18:03:00,43.9,34.8,30.49,SW,222,3.5,0.0,70,0.00,OVC,,0.00,WeatherDisplay:10.37,2013-11-21 23:03:00,
2013-11-21 18:08:00,44.0,34.9,30.49,SW,222,0.0,0.0,70,0.00,OVC,,0.00,WeatherDisplay:10.37,2013-11-21 23:08:00,
2013-11-21 18:13:00,43.9,34.8,30.49,SW,226,4.6,4.6,70,0.00,OVC,,0.00,WeatherDisplay:10.37,2013-11-21 23:13:00,
2013-11-21 18:18:00,43.9,34.8,30.49,South,172,0.0,0.0,70,0.00,OVC,,0.00,WeatherDisplay:10.37,2013-11-21 23:18:00,
2013-11-21 18:23:00,44.0,34.9,30.49,SSE,158,4.6,4.6,70,0.00,OVC,,0.00,WeatherDisplay:10.37,2013-11-21 23:23:00,
2013-11-21 18:28:00,43.9,34.8,30.49,South,178,3.6,3.6,70,0.00,OVC,,0.00,WeatherDisplay:10.37,2013-11-21 23:28:00,
2013-11-21 18:33:00,44.0,35.2,30.49,South,175,4.6,4.6,71,0.00,OVC,,0.00,WeatherDisplay:10.37,2013-11-21 23:33:00,
2013-11-21 18:38:00,44.0,35.2,30.49,SW,227,3.5,3.5,71,0.00,OVC,,0.00,WeatherDisplay:10.37,2013-11-21 23:38:00,
2013-11-21 18:43:00,44.0,35.2,30.49,SW,227,0.0,0.0,71,0.00,OVC,,0.00,WeatherDisplay:10.37,2013-11-21 23:43:00,
2013-11-21 18:48:00,43.7,34.9,30.48,SW,227,0.0,0.0,71,0.00,OVC,,0.00,WeatherDisplay:10.37,2013-11-21 23:48:00,
2013-11-21 18:53:00,43.7,34.9,30.48,SSE,157,0.0,0.0,71,0.00,OVC,,0.00,WeatherDisplay:10.37,2013-11-21 23:53:00,
2013-11-21 18:58:00,43.6,35.2,30.48,SSW,193,4.6,4.6,72,0.00,OVC,,0.00,WeatherDisplay:10.37,2013-11-21 23:58:00,
2013-11-21 19:03:00,43.6,35.2,30.48,South,172,0.0,0.0,72,0.00,OVC,,0.00,WeatherDisplay:10.37,2013-11-22 00:03:00,
2013-11-21 19:08:00,43.5,35.5,30.48,South,182,3.5,3.5,73,0.00,OVC,,0.00,WeatherDisplay:10.37,2013-11-22 00:08:00,
2013-11-21 19:13:00,43.4,35.4,30.48,South,182,0.0,0.0,73,0.00,OVC,,0.00,WeatherDisplay:10.37,2013-11-22 00:13:00,
2013-11-21 19:18:00,43.3,35.6,30.48,South,182,0.0,0.0,74,0.00,OVC,,0.00,WeatherDisplay:10.37,2013-11-22 00:18:00,
2013-11-21 19:23:00,43.2,35.5,30.48,South,182,0.0,0.0,74,0.00,OVC,,0.00,WeatherDisplay:10.37,2013-11-22 00:23:00,
2013-11-21 19:28:00,43.1,35.4,30.48,South,182,0.0,0.0,74,0.00,OVC,,0.00,WeatherDisplay:10.37,2013-11-22 00:28:00,
2013-11-21 19:33:00,43.0,35.3,30.48,South,182,0.0,0.0,74,0.00,OVC,,0.00,WeatherDisplay:10.37,2013-11-22 00:33:00,
2013-11-21 19:38:00,43.1,35.8,30.48,South,182,0.0,0.0,75,0.00,OVC,,0.00,WeatherDisplay:10.37,2013-11-22 00:38:00,
2013-11-21 19:43:00,42.8,35.5,30.48,South,182,0.0,0.0,75,0.00,OVC,,0.00,WeatherDisplay:10.37,2013-11-22 00:43:00,
2013-11-21 19:48:00,42.7,35.7,30.48,South,182,0.0,0.0,76,0.00,OVC,,0.00,WeatherDisplay:10.37,2013-11-22 00:48:00,
2013-11-21 19:53:00,42.5,35.5,30.48,South,182,0.0,0.0,76,0.00,OVC,,0.00,WeatherDisplay:10.37,2013-11-22 00:53:00,
2013-11-21 19:58:00,42.4,35.4,30.48,South,182,0.0,0.0,76,0.00,OVC,,0.00,WeatherDisplay:10.37,2013-11-22 00:58:00,
2013-11-21 20:03:00,42.4,35.4,30.48,South,182,0.0,0.0,76,0.00,OVC,,0.00,WeatherDisplay:10.37,2013-11-22 01:03:00,
2013-11-21 20:08:00,42.2,35.2,30.48,South,179,0.0,0.0,76,0.00,OVC,,0.00,WeatherDisplay:10.37,2013-11-22 01:08:00,
2013-11-21 20:13:00,42.1,35.4,30.48,South,179,0.0,0.0,77,0.00,OVC,,0.00,WeatherDisplay:10.37,2013-11-22 01:13:00,
2013-11-21 20:18:00,42.0,35.3,30.48,South,179,0.0,0.0,77,0.00,OVC,,0.00,WeatherDisplay:10.37,2013-11-22 01:18:00,
2013-11-21 20:23:00,42.0,35.3,30.48,South,179,0.0,0.0,77,0.00,OVC,,0.00,WeatherDisplay:10.37,2013-11-22 01:23:00,
2013-11-21 20:28:00,41.9,35.6,30.47,SE,124,2.3,0.0,78,0.00,OVC,,0.00,WeatherDisplay:10.37,2013-11-22 01:28:00,
2013-11-21 20:33:00,41.9,35.6,30.48,SE,124,0.0,0.0,78,0.00,OVC,,0.00,WeatherDisplay:10.37,2013-11-22 01:33:00,
2013-11-21 20:38:00,42.0,35.7,30.48,SE,124,0.0,0.0,78,0.00,OVC,,0.00,WeatherDisplay:10.37,2013-11-22 01:38:00,
2013-11-21 20:43:00,41.9,35.9,30.48,SE,124,0.0,0.0,79,0.00,OVC,,0.00,WeatherDisplay:10.37,2013-11-22 01:43:00,
2013-11-21 20:48:00,42.0,36.0,30.47,SE,124,0.0,0.0,79,0.00,OVC,,0.00,WeatherDisplay:10.37,2013-11-22 01:48:00,
2013-11-21 20:53:00,42.2,36.2,30.46,SE,124,0.0,0.0,79,0.00,OVC,,0.00,WeatherDisplay:10.37,2013-11-22 01:53:00,
2013-11-21 20:58:00,42.3,36.3,30.46,SE,124,0.0,0.0,79,0.00,OVC,,0.00,WeatherDisplay:10.37,2013-11-22 01:58:00,
2013-11-21 21:03:00,42.3,36.3,30.47,SW,222,3.7,3.7,79,0.00,OVC,,0.00,WeatherDisplay:10.37,2013-11-22 02:03:00,
2013-11-21 21:08:00,42.1,36.1,30.47,SSE,167,0.0,0.0,79,0.00,OVC,,0.00,WeatherDisplay:10.37,2013-11-22 02:08:00,
2013-11-21 21:10:00,42.3,36.3,30.47,SSE,167,0.0,0.0,79,0.00,OVC,,0.00,WeatherDisplay:10.37,2013-11-22 02:10:00,
2013-11-21 21:11:00,42.2,36.2,30.47,SSE,167,0.0,0.0,79,0.00,OVC,,0.00,WeatherDisplay:10.37,2013-11-22 02:11:00,
2013-11-21 21:12:00,42.2,36.2,30.46,SSE,167,0.0,0.0,79,0.00,OVC,,0.00,WeatherDisplay:10.37,2013-11-22 02:12:00,
2013-11-21 21:17:00,42.3,36.3,30.46,SSE,167,0.0,0.0,79,0.00,OVC,,0.00,WeatherDisplay:10.37,2013-11-22 02:17:00,
2013-11-21 21:18:00,42.3,36.3,30.46,SSE,167,0.0,0.0,79,0.00,OVC,,0.00,WeatherDisplay:10.37,2013-11-22 02:18:00,
2013-11-21 21:23:00,42.3,36.3,30.46,SSE,167,0.0,0.0,79,0.00,OVC,,0.00,WeatherDisplay:10.37,2013-11-22 02:23:00,
2013-11-21 21:28:00,42.6,36.9,30.46,SSE,167,0.0,0.0,80,0.00,OVC,,0.00,WeatherDisplay:10.37,2013-11-22 02:28:00,
2013-11-21 21:33:00,42.5,36.5,30.45,SSE,167,0.0,0.0,79,0.00,OVC,,0.00,WeatherDisplay:10.37,2013-11-22 02:33:00,
2013-11-21 21:35:00,42.6,36.6,30.45,SSE,167,0.0,0.0,79,0.00,OVC,,0.00,WeatherDisplay:10.37,2013-11-22 02:35:00,
2013-11-21 21:40:00,42.5,36.5,30.46,SSE,167,0.0,0.0,79,0.00,OVC,,0.00,WeatherDisplay:10.37,2013-11-22 02:40:00,
2013-11-21 21:45:00,42.7,36.7,30.46,SSE,167,0.0,0.0,79,0.00,OVC,,0.00,WeatherDisplay:10.37,2013-11-22 02:45:00,
2013-11-21 21:50:00,42.7,36.7,30.45,SSE,167,0.0,0.0,79,0.00,OVC,,0.00,WeatherDisplay:10.37,2013-11-22 02:50:00,
2013-11-21 21:55:00,42.8,36.8,30.46,SSE,167,0.0,0.0,79,0.00,OVC,,0.00,WeatherDisplay:10.37,2013-11-22 02:55:00,
2013-11-21 22:00:00,42.8,36.8,30.45,SSE,167,0.0,0.0,79,0.00,OVC,,0.00,WeatherDisplay:10.37,2013-11-22 03:00:00,
2013-11-21 22:05:00,42.9,37.2,30.46,SSE,167,0.0,0.0,80,0.00,OVC,,0.00,WeatherDisplay:10.37,2013-11-22 03:05:00,
2013-11-21 22:10:00,42.9,37.2,30.45,SSE,167,0.0,0.0,80,0.00,OVC,,0.00,WeatherDisplay:10.37,2013-11-22 03:10:00,
2013-11-21 22:15:00,42.8,37.1,30.45,SSE,167,0.0,0.0,80,0.00,OVC,,0.00,WeatherDisplay:10.37,2013-11-22 03:15:00,
2013-11-21 22:20:00,42.7,37.0,30.45,SSE,167,0.0,0.0,80,0.00,OVC,,0.00,WeatherDisplay:10.37,2013-11-22 03:20:00,
2013-11-21 22:25:00,42.7,37.0,30.45,SSE,167,0.0,0.0,80,0.00,OVC,,0.00,WeatherDisplay:10.37,2013-11-22 03:25:00,
2013-11-21 22:30:00,42.6,36.9,30.45,SSE,167,0.0,0.0,80,0.00,OVC,,0.00,WeatherDisplay:10.37,2013-11-22 03:30:00,
2013-11-21 22:35:00,42.6,36.9,30.45,SSE,167,0.0,0.0,80,0.00,OVC,,0.00,WeatherDisplay:10.37,2013-11-22 03:35:00,
2013-11-21 22:40:00,42.8,37.4,30.45,SSE,167,0.0,0.0,81,0.00,OVC,,0.00,WeatherDisplay:10.37,2013-11-22 03:40:00,
2013-11-21 22:45:00,42.6,36.9,30.45,SSE,167,0.0,0.0,80,0.00,OVC,,0.00,WeatherDisplay:10.37,2013-11-22 03:45:00,
2013-11-21 22:50:00,42.6,36.6,30.45,SSE,167,0.0,0.0,79,0.00,OVC,,0.00,WeatherDisplay:10.37,2013-11-22 03:50:00,
2013-11-21 22:55:00,42.2,36.2,30.44,SSE,167,0.0,0.0,79,0.00,OVC,,0.00,WeatherDisplay:10.37,2013-11-22 03:55:00,
2013-11-21 23:00:00,42.3,36.3,30.44,SSE,167,0.0,0.0,79,0.00,OVC,,0.00,WeatherDisplay:10.37,2013-11-22 04:00:00,
2013-11-21 23:05:00,42.2,36.2,30.44,SSE,167,0.0,0.0,79,0.00,OVC,,0.00,WeatherDisplay:10.37,2013-11-22 04:05:00,
2013-11-21 23:10:00,42.1,36.4,30.44,SSE,167,0.0,0.0,80,0.00,OVC,,0.00,WeatherDisplay:10.37,2013-11-22 04:10:00,
2013-11-21 23:16:00,42.0,36.0,30.44,SSE,167,0.0,0.0,79,0.00,OVC,,0.00,WeatherDisplay:10.37,2013-11-22 04:16:00,
2013-11-21 23:21:00,41.8,35.8,30.44,SSE,167,0.0,0.0,79,0.00,OVC,,0.00,WeatherDisplay:10.37,2013-11-22 04:21:00,
2013-11-21 23:26:00,41.8,36.1,30.44,SSE,167,0.0,0.0,80,0.00,OVC,,0.00,WeatherDisplay:10.37,2013-11-22 04:26:00,
2013-11-21 23:31:00,41.5,35.8,30.43,SSE,167,0.0,0.0,80,0.00,OVC,,0.00,WeatherDisplay:10.37,2013-11-22 04:31:00,
2013-11-21 23:36:00,41.6,35.9,30.43,SSE,167,0.0,0.0,80,0.00,OVC,,0.00,WeatherDisplay:10.37,2013-11-22 04:36:00,
2013-11-21 23:41:00,41.5,35.8,30.43,SSE,167,0.0,0.0,80,0.00,OVC,,0.00,WeatherDisplay:10.37,2013-11-22 04:41:00,
2013-11-21 23:46:00,41.2,35.5,30.42,SSE,167,0.0,0.0,80,0.00,OVC,,0.00,WeatherDisplay:10.37,2013-11-22 04:46:00,
2013-11-21 23:51:00,41.3,35.6,30.42,SSE,167,0.0,0.0,80,0.00,OVC,,0.00,WeatherDisplay:10.37,2013-11-22 04:51:00,
2013-11-21 23:56:00,41.3,35.6,30.42,SSE,167,0.0,0.0,80,0.00,OVC,,0.00,WeatherDisplay:10.37,2013-11-22 04:56:00,